Location: Helsinki
(60.1699°N, 24.9384°E)
Time: 22:43:14
(UTC+02:00)

Altair - Pass Details

Date: 28 October 2020
Orbit: 1502 x 1682 km, 47.2° (Epoch: 25 November)

Event Time Altitude Azimuth Distance (km) Brightness Sun altitude
Rises 12:05:10 0° 278° (W) 4,775 10.0 16.5°
Reaches altitude 10° 12:09:32 10° 260° (W) 3,821 9.8 16.5°
Maximum altitude 12:15:18 18° 223° (SW) 3,283 10.2 16.5°
Drops below altitude 10° 12:21:10 10° 186° (S) 3,893 12.5 16.4°
Sets 12:25:43 0° 169° (S) 4,900 11.6 16.4°
